Skip Page Navigation
NASA JPL Caltech
NASA Logo - Jet Propulsion Laboratory + View the NASA Portal
+ Near-Earth Object (NEO) Program
Search JPL
JPL Home Earth Solar System Stars & Galaxies Technology
JPL Solar System Dynamics
BODIES ORBITS EPHEMERIDES TOOLS PHYSICAL DATA DISCOVERY FAQ SITE MAP
JPL Small-Body Database Browser
Search: [ help ]  
245539 (2005 TO52)
Classification: Main-belt Asteroid          SPK-ID: 2245539
Ephemeris | Orbit Diagram | Orbital Elements | Physical Parameters | Discovery Circumstances ]

[ hide orbit diagram ]
Orbit Diagram
Note: Make sure you have Java enabled on your browser to see the applet. This applet is provided as a 3D orbit visualization tool. The applet was implemented using 2-body methods, and hence should not be used for determining accurate long-term trajectories (over several years or decades) or planetary encounter circumstances. For accurate long-term ephemerides, please instead use our Horizons system.
Orbit Viewer

Additional Notes: the orbits shown in the applet are color coded. The planets are white lines, and the asteroid/comet is a blue line. The bright white line indicates the portion of the orbit that is above the ecliptic plane, and the darker portion is below the ecliptic plane. Likewise for the asteroid/comet orbit, the light blue indicates the portion above the ecliptic plane, and the dark blue the portion below the ecliptic plane.

Orbit Viewer applet originally written and kindly provided by Osamu Ajiki (AstroArts), and further modified by Ron Baalke (JPL).


Orbital Elements at Epoch 2456400.5 (2013-Apr-18.0) TDB
Reference: MPO220669 (heliocentric ecliptic J2000)
 Element Value Uncertainty (1-sigma)   Units 
e 0.2017324 n/a  
a 3.0930600 n/a AU
q 2.4690896 n/a AU
i 0.85545 n/a deg
node 37.50378 n/a deg
peri 320.01686 n/a deg
M 157.56938 n/a deg
tp 2455530.8384265
(2010-Nov-30.33842650)
n/a JED
period 1986.9226272
5.44
n/a
n/a
d
yr
n 0.18118471 n/a deg/d
Q 3.7170304 n/a AU
  Orbit Determination Parameters
   # obs. used (total)      127  
   first obs. used      2000-??-??  
   last obs. used      2012-01-26  
   # oppositions      6  
   planetary ephem.      DE403  
   condition code      0  
   fit RMS      0.48  
   data source      MPC:mpu  
   producer      MPCLINUX  

Additional Information
 T_jup = 3.192 

Ephemeris | Orbit Diagram | Orbital Elements | Physical Parameters | Discovery Circumstances ]

Physical Parameter Table
Parameter Symbol Value Units Sigma Reference Notes
absolute magnitude H 16.6 mag n/a MPO220669  

245539 (2005 TO52)          Discovered 2005-Oct-12 by Molnar, L. A. at Calvin-Rehoboth (G98)
Reference: 20100726/Numbers.arcLast Updated: 2010-07-28

Alternate Designations
 2005 TO52 = 2000 YJ3 
Ephemeris | Orbit Diagram | Orbital Elements | Physical Parameters | Discovery Circumstances ]
ABOUT SSD CREDITS/AWARDS PRIVACY/COPYRIGHT GLOSSARY LINKS
FirstGov 2013-May-26 09:35 UT
(server date/time)  
NASA Home Page
Site Manager:   Donald K. Yeomans
Webmaster  Alan B. Chamberlin